Estherville, IA

9:23 PM CST on December 02, 2016 (GMT -0600)
Estherville Municipal

Weather History for KEST - November, 2014

Change the Weather History Date:

Saturday, November 29, 2014

  Actual Average Record
Temperature  
Mean Temperature 32 °F 25 °F  
Max Temperature 48 °F 34 °F 64 °F (1998)
Min Temperature 15 °F 16 °F -7 °F (1985)
Degree Days  
Heating Degree Days 33 40  
Month to date heating degree days 1098 930  
Since 1 July heating degree days 1817 1679  
Cooling Degree Days 0 0  
Month to date cooling degree days 0 0  
Year to date cooling degree days 435 593  
Moisture  
Dew Point 23 °F    
Average Humidity 80    
Maximum Humidity 100    
Minimum Humidity 60    
Precipitation  
Precipitation 0.00 in 0.05 in 0.65 in (1961)
Month to date precipitation 0.27 1.62  
Sea Level Pressure  
Sea Level Pressure 29.55 in    
Wind  
Wind Speed 12 mph (WSW)    
Max Wind Speed 29 mph    
Max Gust Speed 36 mph    
Visibility 7 miles    
Events      
T = Trace of Precipitation, MM = Missing Value Source: NWS Daily Summary

Daily Weather History Graph

Daily Weather History Graph

Search for Another Location

Airport or City:

Trip Planner

Search our weather history database for the weather conditions in past years. The results will help you decide how hot, cold, wet, or windy it might be!

Date:

Astronomy

Nov. 29, 2014 Rise Set
Actual Time 7:29 AM CST 4:44 PM CST
Civil Twilight 6:57 AM CST 5:16 PM CST
Nautical Twilight 6:22 AM CST 5:52 PM CST
Astronomical Twilight 5:47 AM CST 6:26 PM CST
Moon 12:51 PM CST (11/29) No Moon Set
Length of Visible Light 10h 19m
Length of Day
9h 15m
First Quarter, 54% of the Moon is Illuminated
Nov 29
First Quarter
Dec 6
Full
Dec 14
Last Quarter
Dec 21
New
Dec 28
First Quarter

Hourly Weather History & Observations

Time (CST) Temp. Windchill Dew Point Humidity Pressure Visibility Wind Dir Wind Speed Gust Speed Precip Events Conditions
12:52 AM 15.1 °F 5.2 °F 14.0 °F 95% 29.63 in 4.0 mi SSE 6.9 mph - N/A   Clear
1:52 AM 17.1 °F 7.6 °F 15.1 °F 92% 29.62 in 3.0 mi SSE 6.9 mph - N/A   Clear
2:52 AM 16.0 °F 5.3 °F 15.1 °F 96% 29.60 in 5.0 mi South 8.1 mph - N/A   Clear
3:52 AM 18.0 °F 6.9 °F 16.0 °F 92% 29.55 in 4.0 mi SSE 9.2 mph - N/A   Clear
4:52 AM 16.0 °F 4.4 °F 15.1 °F 96% 29.53 in 5.0 mi South 9.2 mph - N/A   Clear
5:52 AM 18.0 °F 6.9 °F 17.1 °F 96% 29.51 in 4.0 mi South 9.2 mph - N/A   Clear
6:36 AM 18.0 °F 9.8 °F 16.0 °F 92% 29.45 in 4.0 mi South 5.8 mph - N/A   Scattered Clouds
6:44 AM 17.1 °F 7.6 °F 15.1 °F 92% 29.44 in 4.0 mi South 6.9 mph - N/A   Mostly Cloudy
6:52 AM 17.1 °F 7.6 °F 16.0 °F 96% 29.50 in 4.0 mi South 6.9 mph - N/A   Mostly Cloudy
7:27 AM 18.0 °F 6.1 °F 16.0 °F 92% 29.44 in 3.0 mi South 10.4 mph - N/A   Partly Cloudy
7:52 AM 18.0 °F 6.1 °F 17.1 °F 96% 29.50 in 3.0 mi South 10.4 mph - N/A   Clear
8:52 AM 19.9 °F 12.1 °F 19.0 °F 96% 29.50 in 5.0 mi South 5.8 mph - N/A   Clear
9:52 AM 30.0 °F 20.0 °F 27.0 °F 88% 29.49 in 10.0 mi SSW 12.7 mph - N/A   Clear
10:52 AM 37.9 °F 29.2 °F 28.0 °F 68% 29.49 in 10.0 mi WSW 15.0 mph - N/A   Clear
11:52 AM 42.1 °F 35.7 °F 30.0 °F 62% 29.45 in 10.0 mi SW 11.5 mph - N/A   Clear
12:52 PM 44.1 °F 36.8 °F 32.0 °F 63% 29.44 in 10.0 mi WSW 16.1 mph - N/A   Clear
1:52 PM 46.0 °F 40.6 °F 34.0 °F 63% 29.44 in 10.0 mi WSW 11.5 mph - N/A   Clear
2:52 PM 45.0 °F 41.2 °F 35.1 °F 68% 29.46 in 10.0 mi West 6.9 mph - N/A   Clear
3:52 PM 44.1 °F 40.1 °F 36.0 °F 73% 29.49 in 10.0 mi SW 6.9 mph - N/A   Clear
4:52 PM 39.0 °F 34.0 °F 33.1 °F 79% 29.50 in 10.0 mi NW 6.9 mph - N/A   Clear
5:52 PM 34.0 °F 26.6 °F 30.0 °F 85% 29.54 in 10.0 mi North 9.2 mph - N/A   Clear
6:52 PM 32.0 °F 24.2 °F 28.0 °F 85% 29.58 in 9.0 mi NNW 9.2 mph - N/A   Clear
7:52 PM 28.0 °F 15.7 °F 25.0 °F 88% 29.63 in 7.0 mi NNW 17.3 mph - N/A   Clear
8:15 PM 26.1 °F 12.3 °F 24.1 °F 92% 29.60 in 7.0 mi NNW 19.6 mph - N/A   Scattered Clouds
8:23 PM 26.1 °F 12.0 °F 23.0 °F 88% 29.60 in 6.0 mi NNW 20.7 mph - N/A   Mostly Cloudy
8:52 PM 25.0 °F 10.6 °F 23.0 °F 92% 29.66 in 6.0 mi North 20.7 mph 26.5 mph N/A   Overcast
9:52 PM 24.1 °F 8.3 °F 21.0 °F 88% 29.68 in 6.0 mi North 24.2 mph - N/A   Overcast
10:48 PM 21.2 °F 6.0 °F 19.4 °F 93% 29.69 in 8.0 mi NNW 19.6 mph - N/A   Overcast
10:52 PM 21.9 °F 6.5 °F 19.0 °F 89% 29.74 in 8.0 mi NNW 20.7 mph - N/A   Overcast
11:52 PM 21.0 °F 3.9 °F 16.0 °F 81% 29.74 in 10.0 mi NNW 25.3 mph - N/A   Mostly Cloudy